Weather History for GEML - November, 2012

Change the Weather History Date:

Monday, November 19, 2012

  Actual Average Record
Temperature  
Mean Temperature 63 °F -  
Max Temperature 66 °F 66 °F - ()
Min Temperature 60 °F 54 °F - ()
Degree Days  
Heating Degree Days 2    
Growing Degree Days 13 (Base 50)    
Moisture  
Dew Point 57 °F    
Average Humidity 80    
Maximum Humidity 94    
Minimum Humidity 66    
Precipitation  
Precipitation 0.00 in 0.06 in - ()
Sea Level Pressure  
Sea Level Pressure 30.04 in    
Wind  
Wind Speed 6 mph ()    
Max Wind Speed 13 mph    
Max Gust Speed -    
Visibility 7.1 miles    
Events      
T = Trace of Precipitation, MM = Missing Value Source: Averaged Metar Reports

Daily Weather History Graph

Daily Weather History Graph

Search for Another Location

Airport or City:

Trip Planner

Search our weather history database for the weather conditions in past years. The results will help you decide how hot, cold, wet, or windy it might be!

Date:

Astronomy

Nov. 19, 2012 Rise Set
Actual Time 7:51 AM CET 6:03 PM CET
Civil Twilight 7:23 AM CET 6:30 PM CET
Nautical Twilight 6:52 AM CET 7:01 PM CET
Astronomical Twilight 6:22 AM CET 7:31 PM CET
Moon 12:49 PM CET (11/19) No Moon Set
Length of Visible Light 11h 06m
Length of Day
10h 12m
Waxing Crescent, 38% of the Moon is Illuminated
Nov 19
Waxing Crescent
Nov 20
First Quarter
Nov 28
Full
Dec 6
Last Quarter
Dec 13
New

Hourly Weather History & Observations

Time (CET) Temp. Dew Point Humidity Pressure Visibility Wind Dir Wind Speed Gust Speed Precip Events Conditions
6:00 AM 60.8 °F 59.0 °F 94% 29.98 in 6.2 mi WSW 5.8 mph - N/A   Partly Cloudy
6:30 AM 60.8 °F 57.2 °F 88% 29.98 in 6.2 mi WSW 6.9 mph - N/A   Partly Cloudy
7:00 AM 60 °F 57 °F 86% 29.99 in 16 mi WSW 5.8 mph - -   Partly Cloudy
7:00 AM 60.8 °F 57.2 °F 88% 30.01 in 6.2 mi WSW 5.8 mph - N/A   Partly Cloudy
7:30 AM 60.8 °F 57.2 °F 88% 30.01 in 6.2 mi WSW 4.6 mph - N/A   Scattered Clouds
8:00 AM 60.8 °F 59.0 °F 94% 30.01 in 6.2 mi WSW 4.6 mph - N/A   Partly Cloudy
9:30 AM 64.4 °F 59.0 °F 83% 30.04 in 6.2 mi WSW 4.6 mph - N/A   Partly Cloudy
10:00 AM 66.2 °F 59.0 °F 78% 30.04 in 6.2 mi Variable 3.5 mph - N/A   Scattered Clouds
10:30 AM 64.4 °F 57.2 °F 77% 30.06 in 6.2 mi WSW 6.9 mph - N/A   Scattered Clouds
11:00 AM 64.4 °F 57.2 °F 77% 30.06 in 6.2 mi West 6.9 mph - N/A   Scattered Clouds
11:30 AM 64.4 °F 59.0 °F 83% 30.06 in 6.2 mi WSW 9.2 mph - N/A   Scattered Clouds
12:00 PM 64.4 °F 57.2 °F 77% 30.06 in 6.2 mi WSW 9.2 mph - N/A   Scattered Clouds
12:30 PM 64.4 °F 57.2 °F 77% 30.06 in 6.2 mi West 11.5 mph - N/A   Partly Cloudy
1:00 PM 64 °F 55 °F 66% 30.06 in 25 mi WSW 11.5 mph - -   Scattered Clouds
1:00 PM 64.4 °F 57.2 °F 77% 30.06 in 6.2 mi WSW 11.5 mph - N/A   Partly Cloudy
1:30 PM 64.4 °F 57.2 °F 77% 30.04 in 6.2 mi West 11.5 mph - N/A   Partly Cloudy
2:00 PM 64.4 °F 57.2 °F 77% 30.04 in 6.2 mi West 12.7 mph - N/A   Partly Cloudy
2:30 PM 66.2 °F 59.0 °F 78% 30.04 in 6.2 mi West 10.4 mph - N/A   Partly Cloudy
3:00 PM 66.2 °F 59.0 °F 78% 30.04 in 6.2 mi West 8.1 mph - N/A   Partly Cloudy
3:30 PM 66.2 °F 59.0 °F 78% 30.04 in 6.2 mi WNW 5.8 mph - N/A   Partly Cloudy
4:00 PM 66.2 °F 59.0 °F 78% 30.04 in 6.2 mi WNW 9.2 mph - N/A   Partly Cloudy
4:30 PM 64.4 °F 57.2 °F 77% 30.06 in 6.2 mi West 4.6 mph - N/A   Partly Cloudy
5:30 PM 64.4 °F 57.2 °F 77% 30.06 in 6.2 mi West 8.1 mph - N/A   Partly Cloudy
6:00 PM 64.4 °F 57.2 °F 77% 30.06 in 6.2 mi West 4.6 mph - N/A   Partly Cloudy
6:30 PM 62.6 °F 55.4 °F 77% 30.06 in 6.2 mi Calm Calm - N/A   Partly Cloudy
7:00 PM 61 °F 55 °F 76% 30.07 in 19 mi Calm Calm - -   Scattered Clouds
7:00 PM 60.8 °F 55.4 °F 82% 30.06 in - Calm Calm - N/A   Clear
7:30 PM 60.8 °F 53.6 °F 77% 30.06 in - Variable 1.2 mph - N/A   Clear